Location: Fort Wayne
(41.1310°N, 85.1290°W)
Time: 14:50:45
(UTC-04:00)

ISS - Visible Passes

Search period start: 29 July 2014 00:00
Search period end: 08 August 2014 00:00
Orbit: 411 x 420 km, 51.6° (Epoch: 29 July)

Date Brightness Start Highest point End Pass type
(mag) Time Alt. Az. Time Alt. Az. Time Alt. Az.
29 Jul -0.1 02:11:22 14° NNE 02:11:22 14° NNE 02:12:01 10° NE visible
29 Jul -0.2 03:44:58 10° NW 03:46:47 14° N 03:48:37 10° NNE visible
29 Jul -0.5 05:21:51 10° NNW 05:24:28 21° NNE 05:27:05 10° ENE visible
30 Jul -0.3 02:57:03 14° NNW 02:57:42 15° N 02:59:40 10° NNE visible
30 Jul -0.3 04:33:08 10° NNW 04:35:26 17° NNE 04:37:43 10° ENE visible
31 Jul 0.0 02:09:55 14° NNE 02:09:55 14° NNE 02:10:51 10° NNE visible
31 Jul -0.1 03:44:21 10° NNW 03:46:21 15° N 03:48:21 10° NE visible
31 Jul -1.5 05:20:40 10° NW 05:23:48 36° NNE 05:26:56 10° E visible
01 Aug 0.0 02:55:45 11° NNW 02:57:15 14° N 02:59:04 10° NE visible
01 Aug -0.9 04:31:58 10° NW 04:34:50 25° NNE 04:37:42 10° E visible
02 Aug 0.1 02:09:03 13° NNE 02:09:03 13° NNE 02:09:57 10° NNE visible
02 Aug -0.5 03:43:16 10° NNW 03:45:49 20° NNE 03:48:22 10° ENE visible
02 Aug -3.3 05:19:33 10° NW 05:22:56 86° NE 05:26:17 10° SE visible
02 Aug -2.4 22:02:02 10° SSW 22:04:56 28° SE 22:07:50 10° ENE visible
02 Aug -1.7 23:38:26 10° W 23:41:10 35° NW 23:41:10 35° NW visible
03 Aug -0.2 02:56:19 16° N 02:56:44 16° NNE 02:58:57 10° NE visible
03 Aug -2.4 04:30:46 10° NW 04:34:03 51° NNE 04:37:20 10° ESE visible
03 Aug -2.7 22:49:21 10° WSW 22:52:38 58° NNW 22:55:57 10° NE visible
04 Aug -0.3 00:27:36 10° WNW 00:29:54 17° NNW 00:30:01 17° N visible
04 Aug -1.3 03:46:05 27° ENE 03:46:05 27° ENE 03:48:11 10° E visible
04 Aug -2.6 05:19:16 13° WNW 05:21:49 33° SW 05:24:52 10° SSE visible
04 Aug -3.4 22:00:27 10° SW 22:03:46 81° SE 22:07:07 10° NE visible
04 Aug -0.6 23:38:12 10° WNW 23:40:49 21° NNW 23:43:27 10° NNE visible
05 Aug 0.3 01:16:41 10° NNW 01:16:43 10° NNW 01:16:43 10° NNW visible
05 Aug -1.1 22:48:52 10° W 22:51:47 28° NNW 22:54:43 10° NE visible
06 Aug -0.1 00:27:30 10° NW 00:29:20 14° N 00:29:49 14° N visible
06 Aug -1.8 21:59:38 10° W 22:02:47 40° NNW 22:05:58 10° NE visible
06 Aug -0.2 23:38:09 10° NW 23:40:12 15° N 23:42:15 10° NNE visible
07 Aug -0.4 22:48:43 10° WNW 22:51:04 18° NNW 22:53:25 10° NNE visible
